Location: Alpha Ridge Park
(39.3209°N, 76.9128°W)
Time: 10:22:50
(UTC-04:00)

Vanguard 1 Rocket - Visible Passes

Search period start: 20 May 2019 00:00
Search period end: 30 May 2019 00:00
Orbit: 652 x 4224 km, 34.3° (Epoch: 18 May)

Date Brightness Start Highest point End Pass type
(mag) Time Alt. Az. Time Alt. Az. Time Alt. Az.
20 May 8.1 03:10:59 38° S 03:11:48 39° SSE 03:20:20 10° E visible
21 May 9.3 02:03:39 18° ESE 02:03:39 18° ESE 02:06:33 10° E visible
21 May 8.3 04:20:55 20° WSW 04:25:35 60° SSE 04:37:08 10° E visible
22 May 7.8 03:13:36 43° S 03:14:32 46° SSE 03:23:05 10° E visible
23 May 9.0 02:06:16 22° ESE 02:06:16 22° ESE 02:09:40 10° E visible
23 May 8.2 04:23:32 17° WSW 04:28:27 62° S 04:39:41 10° E visible
24 May 7.6 03:16:13 45° SSW 03:17:21 51° SSE 03:25:47 10° E visible
25 May 8.7 02:08:55 26° ESE 02:08:55 26° ESE 02:12:37 10° E visible
25 May 8.1 04:26:11 14° WSW 04:31:20 61° S 04:42:12 10° ESE visible
26 May 7.5 03:18:54 45° SW 03:20:13 55° S 03:28:29 10° E visible
27 May 8.5 02:11:38 29° ESE 02:11:38 29° ESE 02:15:31 10° E visible
27 May 8.1 04:28:54 12° W 04:34:15 57° S 04:44:39 10° ESE visible
28 May 7.5 03:21:40 43° SW 03:23:08 56° S 03:31:08 10° E visible
29 May 8.3 02:14:28 31° ESE 02:14:28 31° ESE 02:18:21 10° E visible
29 May 8.1 04:31:44 10° W 04:37:11 51° S 04:47:02 10° ESE visible
